Location: Palau
(42.3086°N, 3.1507°E)
Time: 21:10:20
(UTC+00:00)

Cosmos 841 Rocket - Pass Details

Date: 26 May 2020
Orbit: 748 x 771 km, 74.0° (Epoch: 13 July)

Event Time Altitude Azimuth Distance (km) Brightness Sun altitude
Exits shadow 02:44:27 18° 198° (SSW) 1,811 4.9 -14.1°
Maximum altitude 02:48:24 89° 108° (ESE) 773 3.5 -13.6°
Drops below altitude 10° 02:53:40 10° 20° (NNE) 2,307 7.1 -13.0°
Sets 02:56:02 0° 21° (NNE) 3,234 8.0 -12.7°
